Location: *
(40.1039°S, 80.3510°E)
Time: 08:05:59
(UTC+00:00)

Daily predictions for brighter satellites

Satellite Brightness Start Highest point End
(mag) Time Altitude Azimuth Time Altitude Azimuth Time Altitude Azimuth
CZ-4 R/B 3.1 12:48:35 10° ESE 12:50:35 13° E 12:52:33 10° ENE
Cosmos 407 Rocket 3.6 12:48:08 10° SSW 12:53:31 65° ESE 12:58:46 10° NNE
Meteor 2-15 Rocket 4.5 12:47:36 10° S 12:53:47 65° E 12:59:51 10° NNE
STARLINK-80 3.4 12:50:09 10° SW 12:54:02 70° SE 12:57:50 10° ENE
STARLINK-1150 4.5 12:53:03 10° N 12:56:02 25° NE 12:59:02 10° ESE
NOAA 12 4.3 12:52:37 10° SSE 12:57:53 52° E 13:03:05 10° N
STARLINK-1149 4.3 12:59:25 10° NNW 13:02:42 30° NE 13:05:54 11° ESE
Helios 1A Rocket 3.0 12:58:27 10° SSE 13:02:42 89° WSW 13:06:53 10° NNW
Cosmos 2278 Rocket 3.5 13:00:11 10° NE 13:04:00 19° E 13:07:50 10° ESE
STARLINK-55 3.4 13:03:21 10° SW 13:06:32 45° SE 13:09:18 13° ENE
Cosmos 1844 3.7 13:01:34 10° NNW 13:07:22 78° ENE 13:13:13 10° SSE
Cosmos 2228 3.8 13:05:01 10° SSE 13:08:50 30° ESE 13:12:36 10° NE
Lacrosse 4 Rocket 1.4 13:05:44 10° NNW 13:09:51 59° ENE 13:13:56 10° SE
STARLINK-28 3.2 13:06:58 10° SW 13:10:11 53° SE 13:12:54 14° ENE
Cosmos 1606 Rocket 4.2 13:06:11 10° SSE 13:10:12 33° ESE 13:14:09 10° NE
Cosmos 1953 2.2 13:07:28 10° S 13:11:33 74° E 13:15:33 10° NNE
STARLINK-1132 4.0 13:08:19 10° NNW 13:11:38 35° NE 13:14:21 14° ESE
In-Cosmos 22 4.0 13:07:48 10° N 13:13:05 70° E 13:18:25 10° SSE
Lacrosse 5 2.1 13:08:18 10° NNW 13:13:16 52° NE 13:18:17 10° SE
Envisat 3.0 13:08:40 10° SSE 13:13:51 82° ENE 13:18:58 10° N
STARLINK-1177 3.9 13:11:08 10° NNW 13:14:29 37° NE 13:17:06 15° ESE
STARLINK-33 3.2 13:12:35 10° SW 13:15:49 52° SE 13:18:09 17° ENE
Cosmos 1954 Rocket 4.3 13:11:07 10° S 13:16:21 50° ESE 13:21:32 10° NE
STARLINK-1167 3.8 13:13:25 10° NNW 13:16:49 39° NE 13:19:21 16° ESE
Cosmos 1908 4.0 13:15:51 10° SSE 13:19:18 30° ESE 13:22:43 10° NE
STARLINK-66 3.1 13:17:29 10° SW 13:20:45 60° SE 13:22:54 19° ENE
CORIOLIS 4.3 13:18:20 10° SSE 13:23:47 83° WSW 13:29:13 10° NNW
STARLINK-1163 3.5 13:21:14 10° NNW 13:24:44 48° NE 13:27:02 19° ESE
SMAP 3.9 13:21:01 10° S 13:25:39 56° WSW 13:30:14 10° NNW
STARLINK-58 4.1 13:23:16 10° SSW 13:26:12 29° SSE 13:27:28 22° ESE
Shenzhou-11 Module 1.5 13:24:17 10° WNW 13:26:55 70° NNE 13:28:00 31° E
STARLINK-64 4.1 13:25:19 10° SW 13:28:46 36° SSE 13:30:22 23° E
Cosmos 371 Rocket 3.9 13:26:32 10° NNE 13:30:58 35° ENE 13:35:28 10° SE
USA 81 4.1 13:25:57 10° NNE 13:31:07 55° E 13:36:21 10° SSE
STARLINK-75 3.0 13:28:02 10° SW 13:31:17 66° SE 13:32:53 27° ENE
Okean O Rocket 4.1 13:27:59 10° SSW 13:31:35 24° WSW 13:35:08 10° WNW
STARLINK-1151 3.3 13:29:23 10° NNW 13:32:45 52° NE 13:34:24 26° ESE
STARLINK-1133 3.3 13:30:23 10° NNW 13:33:46 53° NE 13:35:22 27° ESE
STARLINK-1139 3.3 13:31:24 10° NW 13:34:47 54° NE 13:36:22 28° ESE
STARLINK-61 4.3 13:31:24 10° SW 13:35:08 36° SSE 13:36:44 25° ESE
SL-08 ROCKET BODY 4.5 13:29:58 10° NNE 13:35:36 51° E 13:41:19 10° SSE
STARLINK-1174 3.2 13:32:26 10° NW 13:35:50 56° NE 13:37:22 28° ESE
Cosmos 1674 2.5 13:33:23 10° N 13:37:08 72° E 13:40:58 10° SSE
SL-24 R/B 4.0 13:33:18 10° NNE 13:37:09 59° ESE 13:41:30 10° S
STARLINK-1180 3.2 13:34:35 10° NW 13:37:59 59° NE 13:39:26 31° ESE
STARLINK-1153 3.2 13:35:37 10° NW 13:39:03 60° NE 13:40:30 31° ESE
BREEZE-M DEB (TANK) 2.2 13:42:08 10° WNW 13:44:36 78° SSW 13:48:38 17° SE
Meteor 1-24 Rocket 3.9 13:39:33 10° NNE 13:44:39 45° E 13:49:58 10° SSE
STARLINK-34 3.5 13:41:29 10° SW 13:44:40 42° SE 13:45:12 38° ESE
Cosmos 1844 Rocket 4.0 13:39:39 10° NW 13:44:55 42° WSW 13:50:16 10° S
USA 229 DEB 4.3 13:38:23 10° N 13:45:20 39° ENE 13:52:07 10° SE
USA 229 4.3 13:38:31 10° N 13:45:28 39° ENE 13:52:09 10° SE
STARLINK-62 3.5 13:42:33 10° SW 13:45:45 43° SE 13:46:14 39° ESE
Okean 1-7 Rocket 3.6 13:41:29 10° N 13:45:52 56° E 13:50:22 10° SSE
Cosmos 1271 Rocket 3.9 13:42:47 10° NNW 13:46:29 45° WSW 13:50:19 10° S
CZ-2C R/B 3.6 13:42:15 10° NNE 13:46:46 88° W 13:51:17 10° SSW
STARLINK-22 2.8 13:44:32 10° SW 13:47:48 73° SE 13:48:28 51° ENE
STARLINK-1168 3.0 13:45:31 10° NW 13:49:00 77° NE 13:50:06 41° ESE
STARLINK-1164 3.0 13:46:40 10° NW 13:50:10 79° NE 13:51:13 42° ESE
STARLINK-1029 3.9 13:47:23 10° SW 13:50:23 33° SSE 13:50:26 33° SE
CZ-2D R/B 3.4 13:47:10 10° SSE 13:51:00 47° E 13:54:46 10° N
Cosmos 1745 Rocket 3.9 13:45:11 10° N 13:51:20 78° E 13:57:32 10° S
STARLINK-1182 3.0 13:47:51 10° NW 13:51:21 82° NE 13:52:22 44° ESE
YAOGAN 1 2.7 13:47:27 10° SSE 13:51:45 51° E 13:55:59 10° N
Nadezhda 1 Rocket 4.0 13:45:33 10° S 13:51:55 70° E 13:58:17 10° NNE
Cosmos 1420 Rocket 4.3 13:48:30 10° NNW 13:53:41 69° WSW 13:58:56 10° SSE
YAOGAN 6 4.5 13:50:49 10° S 13:54:01 31° WSW 13:57:13 10° NW
STARLINK-1172 3.0 13:50:34 10° NW 13:54:04 86° NE 13:54:59 47° SE
STARLINK-1145 3.1 13:51:47 10° NW 13:55:19 89° NE 13:56:12 48° SE
Cosmos 1726 3.6 13:52:19 10° SSW 13:55:53 40° W 13:59:25 10° NNW
STARLINK-1161 3.1 13:53:02 10° NW 13:56:33 89° SW 13:57:24 50° SE
Meteor 2-5 Rocket 3.6 13:51:36 10° N 13:57:12 82° E 14:02:58 10° SSE
STARLINK-1160 3.1 13:54:18 10° NW 13:57:49 87° SW 13:58:37 52° SE
Cosmos 332 Rocket 3.9 13:56:40 10° N 14:01:25 53° ENE 14:06:11 10° SSE
STARLINK-48 4.1 13:58:54 10° WSW 14:02:45 52° NW 14:04:13 32° NNE
Cosmos 1850 Rocket 4.1 13:59:08 10° S 14:04:24 53° ESE 14:05:55 40° ENE
STARLINK-1179 3.4 14:01:18 10° WNW 14:04:25 55° SW 14:04:48 51° S
STARLINK-1176 3.4 14:01:45 10° WNW 14:04:53 55° SW 14:05:14 51° S
Cosmos 2058 Rocket 3.0 14:00:33 10° S 14:05:03 69° E 14:07:10 31° NNE
STARLINK-1173 3.4 14:04:21 10° WNW 14:07:28 55° SW 14:07:38 54° SSW
STARLINK-37 4.5 14:03:56 10° SW 14:07:43 35° SSE 14:07:43 35° SSE
STARLINK-1136 3.4 14:04:47 10° WNW 14:07:54 55° SW 14:08:04 54° SSW
Lacrosse 5 rocket 2.7 14:05:43 10° SSW 14:08:50 25° SSE 14:08:50 25° SSE
STARLINK 1040 4.0 14:07:45 10° WSW 14:09:58 36° WNW 14:09:58 36° WNW
STARLINK-68 4.4 14:07:18 10° SW 14:11:00 37° SSE 14:11:00 37° SSE
STARLINK-63 4.4 14:08:51 10° SW 14:12:28 36° SSE 14:12:28 36° SSE
Okean-O 3.7 14:08:24 10° S 14:12:44 46° WSW 14:17:00 10° NW
NOAA 15 4.5 14:07:24 10° SSE 14:12:49 80° ENE 14:18:10 10° N
STARLINK-35 4.5 14:10:25 10° SW 14:13:57 36° SSE 14:13:57 36° SSE
STARLINK-1183 3.7 14:11:19 10° WNW 14:14:10 52° WSW 14:14:10 52° WSW
STARLINK-42 4.1 14:11:22 10° WSW 14:14:28 39° NW 14:14:32 39° NW
STARLINK-1181 3.7 14:11:46 10° WNW 14:14:36 51° WSW 14:14:36 51° WSW
STARLINK-1196 3.7 14:12:13 10° WNW 14:15:02 50° WSW 14:15:02 50° WSW
Cosmos 2082 Rocket 3.2 14:10:28 10° S 14:14:52 29° SE 14:14:52 29° SE
STARLINK-1186 3.8 14:12:42 10° WNW 14:15:28 49° WSW 14:15:28 49° WSW
STARLINK-51 4.5 14:12:04 10° SW 14:15:33 36° SSE 14:15:33 36° SSE
STARLINK-1185 3.8 14:13:08 10° WNW 14:15:54 49° WSW 14:15:54 49° WSW
STARLINK-41 4.0 14:13:19 10° WSW 14:16:06 43° WNW 14:16:06 43° WNW
STARLINK-1175 3.8 14:13:36 10° WNW 14:16:21 48° WSW 14:16:21 48° WSW
STARLINK-1147 3.9 14:14:03 10° WNW 14:16:46 47° WSW 14:16:46 47° WSW
CZ-2C R/B 2.7 14:12:03 10° N 14:17:27 79° WNW 14:23:03 10° SSW
STARLINK-30 4.5 14:13:43 10° SW 14:17:08 37° SSE 14:17:08 37° SSE
STARLINK-1146 3.9 14:14:31 10° WNW 14:17:13 46° WSW 14:17:13 46° WSW
STARLINK-1152 3.9 14:14:57 10° WNW 14:17:38 46° WSW 14:17:38 46° WSW
STARLINK-1195 4.0 14:15:26 10° WNW 14:18:05 45° WSW 14:18:05 45° WSW
STARLINK-1137 4.0 14:15:52 10° WNW 14:18:30 44° WSW 14:18:30 44° WSW
Cosmos 1726 Rocket 4.4 14:14:51 10° SSW 14:19:07 50° W 14:23:20 10° NNW
STARLINK-72 4.5 14:15:21 10° SW 14:18:43 37° SSE 14:18:43 37° SSE
STARLINK-1142 4.0 14:16:19 10° WNW 14:18:57 44° WSW 14:18:57 44° WSW
STARLINK-1127 4.1 14:16:46 10° WNW 14:19:22 43° WSW 14:19:22 43° WSW
STARLINK-1184 4.1 14:17:13 10° WNW 14:19:48 42° WSW 14:19:48 42° WSW
STARLINK-1193 4.1 14:17:42 10° WNW 14:20:15 42° WSW 14:20:15 42° WSW
CSL-04 Debris 4.1 14:15:16 10° SSE 14:20:51 77° ENE 14:26:23 10° N
STARLINK-50 4.5 14:17:01 10° SW 14:20:19 38° S 14:20:19 38° S
STARLINK-1194 4.2 14:18:07 10° WNW 14:20:40 41° WSW 14:20:40 41° WSW
STARLINK-1170 4.1 14:18:40 10° WNW 14:22:17 48° SW 14:22:32 47° SSW
STARLINK-59 4.4 14:18:44 10° SW 14:22:01 39° S 14:22:01 39° S
STARLINK-1010 4.2 14:18:52 10° SW 14:22:36 47° SSE 14:22:36 47° SSE
NOSS 3-1 (C) 4.1 14:14:40 10° NNW 14:23:27 72° ENE 14:31:19 10° SE
Cosmos 1340 Rocket 3.7 14:21:38 10° SSW 14:25:39 51° W 14:27:58 23° NNW
CZ-4 R/B 2.4 14:21:53 10° S 14:25:52 46° WSW 14:29:44 10° NW
COSMOS 2406 3.2 14:23:22 10° SSW 14:29:08 84° WNW 14:31:03 44° NNE
Cosmos 1833 Rocket 2.7 14:26:00 10° SSW 14:31:39 61° ESE 14:31:39 61° ESE
Cosmos 1939 Rocket 3.9 14:28:11 10° S 14:32:15 48° WSW 14:36:12 10° NNW
Cosmos 1607 3.8 14:30:03 10° SSW 14:36:18 70° ESE 14:36:51 66° E
DNEPR-1 R/B 4.4 14:32:29 10° SSW 14:38:17 70° ESE 14:38:57 65° E
Cosmos 2278 Rocket 2.7 14:41:55 10° NW 14:47:32 59° WSW 14:53:12 10° SSE
Cosmos 1709 Rocket 4.2 14:41:50 10° NNW 14:47:57 70° W 14:54:13 10° S
CSL-04 Rocket 4.0 14:42:56 10° S 14:48:26 64° WSW 14:53:47 10° NNW
Lacrosse 4 Rocket 4.3 14:46:38 10° W 14:48:53 14° SW 14:51:09 10° SSW
Lacrosse 5 3.5 14:51:52 10° W 14:56:27 31° SSW 14:58:03 26° S
USA 215 3.2 14:59:09 66° N 14:59:09 66° N 15:05:00 10° NW
Cosmos 44 4.0 14:53:42 10° SW 14:57:45 53° SW 14:57:45 53° SW
H-2A R/B 4.5 14:56:50 10° SSE 14:57:16 12° SSE 14:57:16 12° SSE
USA 267 4.3 15:31:06 35° S 15:31:06 35° S 15:35:54 10° SW
NOSS 3-1 (A) 4.4 15:37:05 10° NW 15:45:45 63° SW 15:46:40 59° SSW
Cosmos 2082 Rocket 4.2 15:54:17 10° SW 15:56:44 24° SW 15:56:44 24° SW
CZ-4C R/B 3.9 21:11:42 40° ESE 21:11:42 40° ESE 21:16:12 10° SE
SL-16 R/B 4.4 21:11:15 10° SSE 21:13:38 25° SSE 21:13:38 25° SSE
SL-16 R/B 4.4 21:23:53 19° SSE 21:23:53 19° SSE 21:25:24 10° SSE
Cosmos 2360 Rocket 4.1 21:28:59 26° SE 21:28:59 26° SE 21:31:40 10° SE
Cosmos 2322 Rocket 4.2 21:33:20 22° SSE 21:33:20 22° SSE 21:35:13 10° SSE
USA 215 4.2 21:40:03 10° E 21:46:12 43° SSE 21:47:35 39° S
CZ-3 R/B 4.1 22:07:53 41° NW 22:18:38 57° N 22:29:24 10° ENE
Cosmos 2112 Rocket 4.4 22:23:15 62° SE 22:23:15 62° SE 22:27:52 10° SSE
Cosmos 2219 Rocket 3.2 22:24:12 32° NNE 22:26:07 43° ENE 22:31:28 10° SE
Cosmos 158 Rocket 4.2 22:33:52 60° SE 22:33:52 60° SE 22:37:57 10° SSE
COSMOS 2428 3.4 22:35:47 29° NNE 22:38:25 51° ENE 22:43:58 10° SSE
Cosmos 1844 Rocket 2.6 22:36:00 33° SSW 22:38:38 82° ESE 22:44:15 10° NNE
Cosmos 2322 3.6 22:38:46 81° NNW 22:39:06 89° SW 22:44:53 10° SSE
ALOS 2.7 22:37:15 10° NNE 22:41:52 61° ESE 22:46:34 10° S
STARLINK-1143 4.4 22:42:56 52° ESE 22:42:56 52° ESE 22:46:17 10° SE
Sich 1 Rocket 4.5 22:41:09 28° NNE 22:43:11 49° E 22:47:38 10° SSE
Cosmos 2333 4.1 22:42:38 69° NNW 22:43:23 90° ENE 22:49:14 10° SSE
Cosmos 2279 Rocket 4.1 22:38:06 13° N 22:43:42 74° E 22:50:01 10° S
COBE Rocket 4.3 22:40:20 10° SSE 22:45:33 64° E 22:48:37 24° N
STARLINK-1241 4.1 22:47:46 60° ESE 22:47:46 60° ESE 22:51:19 10° SE
Cosmos 2056 Rocket 4.1 22:44:06 10° SSW 22:49:31 60° ESE 22:54:53 10° NNE
Okean O Rocket 3.9 22:47:21 10° ENE 22:51:03 26° ESE 22:54:48 10° SSE
ISS -0.9 22:51:45 12° S 22:51:45 12° S 22:52:57 10° SSE
STARLINK-1239 3.9 22:52:32 69° ESE 22:52:32 69° ESE 22:56:17 10° SE
Cosmos 1627 Rocket 4.4 22:47:05 10° SSW 22:53:25 63° W 22:59:35 10° N
Cosmos 2195 Rocket 4.4 22:48:24 10° SSW 22:54:25 55° W 22:54:40 55° W
Cosmos 1241 Rocket 4.5 22:54:28 51° WNW 22:56:11 71° WSW 23:02:48 10° SSE
STARLINK-1240 3.7 22:57:20 77° SE 22:57:20 77° SE 23:01:17 10° SE
CZ-4C R/B 3.5 22:56:56 35° WSW 22:57:59 37° SW 23:04:24 10° SSE
Cosmos 1975 Rocket 3.2 22:53:44 10° S 22:58:10 74° E 23:02:30 10° NNE
BREEZE-M DEB (TANK) 4.1 22:56:59 30° SSW 22:58:33 37° S 23:10:15 10° ESE
METEOR-M 4.1 22:54:07 10° NNE 22:59:30 90° E 23:04:58 10° SSW
SAR-Lupe-1 4.3 22:56:42 10° SSE 23:00:11 68° ESE 23:00:11 68° ESE
SL-16 R/B 4.2 22:56:15 10° SSW 22:58:43 17° SW 22:58:43 17° SW
H-2A R/B 2.9 22:56:19 10° S 22:59:35 40° SSW 22:59:35 40° SSW
STARLINK-1216 3.5 23:02:07 81° SSW 23:02:07 81° SSW 23:06:16 10° SE
FENGYUN 3A 3.5 22:57:34 10° N 23:02:59 81° WNW 23:08:28 10° SSW
SL-16 R/B 4.1 23:05:45 15° SW 23:05:45 15° SW 23:07:54 10° SSW
ATLAS 3B CENTAUR R/B 4.0 23:02:12 27° NW 23:05:26 35° N 23:18:46 10° NE
STARLINK-1237 3.5 23:06:53 74° SW 23:06:59 75° SW 23:11:13 10° SE
USA 229 DEB 3.7 23:03:05 10° SSW 23:09:59 76° SE 23:16:29 10° NE
USA 229 3.8 23:03:13 10° SSW 23:10:06 75° SE 23:16:36 10° NE
Cosmos 2360 Rocket 3.2 23:10:47 29° SW 23:10:47 29° SW 23:15:24 10° S
CZ-4B DEB 4.3 23:05:38 10° NNE 23:11:13 81° ESE 23:16:52 10° SSW
Cosmos 2180 Rocket 4.5 23:05:14 10° N 23:11:38 86° W 23:18:10 10° S
STARLINK-1202 3.5 23:11:39 65° WSW 23:11:58 68° SW 23:16:11 10° SE
Lacrosse 4 Rocket 3.3 23:15:45 17° N 23:15:45 17° N 23:16:54 10° N
EXPRESS MD2 3.7 23:13:58 50° NW 23:14:08 50° NW 23:20:14 10° NE
Cosmos 2322 Rocket 4.0 23:15:10 15° SW 23:15:10 15° SW 23:17:37 10° SSW
STARLINK-1203 3.8 23:16:12 53° WSW 23:16:42 58° SW 23:20:57 10° SE
Cosmos 2333 Rocket 2.2 23:16:02 31° NW 23:18:50 65° WSW 23:24:37 10° SSE
NOSS 3-1 (A) 3.9 23:13:16 10° SSW 23:19:33 57° SE 23:24:56 10° NE
Cosmos 1689 Rocket 4.1 23:17:09 10° SSE 23:19:56 31° E 23:22:42 10° NNE
NOAA 6 4.4 23:15:20 10° NNE 23:20:29 69° ESE 23:25:43 10° S
Cosmos 1680 Rocket 4.4 23:21:14 29° WSW 23:21:14 29° WSW 23:25:50 10° S
STARLINK-1246 3.8 23:21:14 49° WSW 23:21:57 57° SW 23:26:07 10° SE
STARLINK-1224 3.9 23:26:01 43° WSW 23:26:56 53° SW 23:31:05 10° SE
Cosmos 1782 Rocket 4.1 23:27:05 36° WSW 23:27:05 36° WSW 23:31:08 10° S
USA 215 3.3 23:22:28 10° NNE 23:28:59 63° NW 23:34:57 13° SW
CZ-4B R/B 1.2 23:26:52 10° S 23:30:11 76° WSW 23:32:13 22° NNW
Cosmos 2237 Rocket 3.0 23:25:01 10° N 23:30:33 54° ENE 23:36:08 10° SSE
Abrixas rocket 2.0 23:30:53 59° NNW 23:31:20 76° NE 23:34:22 10° ESE
Cosmos 1707 4.4 23:27:59 10° S 23:31:39 37° ESE 23:35:16 10° NNE
STARLINK-1225 4.0 23:30:49 38° W 23:31:57 49° SSW 23:36:04 10° SE
Okean 2 3.7 23:28:27 10° SSW 23:32:30 43° W 23:36:28 10° NNW
Cosmos 2084 4.3 23:34:25 28° WSW 23:34:59 30° SW 23:38:47 10° SSE
STARLINK-1230 4.1 23:35:35 33° W 23:36:56 45° SSW 23:41:01 10° SE
NOSS 0 Rocket 4.1 23:30:55 10° NNW 23:37:06 79° ENE 23:43:23 10° SSE
Cosmos 1975 3.6 23:38:59 31° W 23:39:35 32° WSW 23:43:22 10° SSW
CZ-4B R/B 3.3 23:34:36 10° NNE 23:40:18 89° ESE 23:46:03 10° SSW
SJ-7 4.4 23:37:30 10° NNE 23:41:37 88° ESE 23:45:52 10° SSW
STARLINK-1243 4.2 23:40:21 29° W 23:41:54 42° SSW 23:45:56 10° SE
Cosmos 2278 Rocket 2.8 23:36:41 10° SSW 23:42:20 59° ESE 23:47:56 10° NE
Cosmos 1025 Rocket 3.3 23:38:43 10° S 23:43:10 72° E 23:47:34 10° NNE
STARLINK-1116 4.5 23:42:27 13° SW 23:46:07 48° SE 23:50:11 10° ENE
Cosmos 1844 4.3 23:41:19 10° SW 23:46:23 34° WNW 23:51:21 10° NNW
STARLINK-1236 4.3 23:45:10 26° W 23:46:56 39° SSW 23:50:55 10° SE
NOSS 3-1 (C) 3.3 23:41:57 10° SW 23:47:58 56° WNW 23:53:12 10° NNE
Cosmos 371 Rocket 4.3 23:44:30 10° S 23:49:18 50° ESE 23:54:02 10° NE
Helios 1A Rocket 3.6 23:45:55 10° NNE 23:49:57 58° ESE 23:54:05 10° S
Radarsat Rocket 4.1 23:46:33 10° NNE 23:52:38 79° WNW 23:59:29 10° SSW
Cosmos 2266 Rocket 3.9 23:46:27 10° S 23:52:39 73° W 23:58:53 10° N
